TimeEDT,TemperatureF,Dew PointF,Humidity,Sea Level PressureIn,VisibilityMPH,Wind Direction,Wind SpeedMPH,Gust SpeedMPH,PrecipitationIn,Events,Conditions,WindDirDegrees,DateUTC
12:54 AM,54.0,48.0,80,30.29,10.0,Calm,Calm,-,N/A,,Scattered Clouds,0,2013-04-18 04:54:00
1:54 AM,55.9,45.0,67,30.27,10.0,Calm,Calm,-,N/A,,Overcast,0,2013-04-18 05:54:00
2:54 AM,54.0,46.0,75,30.28,10.0,Calm,Calm,-,N/A,,Overcast,0,2013-04-18 06:54:00
3:54 AM,54.0,44.1,69,30.27,10.0,East,3.5,-,N/A,,Mostly Cloudy,100,2013-04-18 07:54:00
4:54 AM,54.0,43.0,66,30.26,10.0,East,4.6,-,N/A,,Overcast,100,2013-04-18 08:54:00
5:54 AM,53.1,42.1,66,30.25,10.0,ENE,3.5,-,N/A,,Overcast,70,2013-04-18 09:54:00
6:54 AM,54.0,39.9,59,30.27,10.0,East,4.6,-,N/A,,Overcast,100,2013-04-18 10:54:00
7:54 AM,54.0,41.0,62,30.28,10.0,East,4.6,-,N/A,,Overcast,80,2013-04-18 11:54:00
8:54 AM,55.0,46.0,72,30.28,10.0,Variable,5.8,-,N/A,,Overcast,0,2013-04-18 12:54:00
9:54 AM,57.0,48.9,74,30.27,10.0,East,5.8,-,N/A,,Overcast,100,2013-04-18 13:54:00
10:54 AM,57.0,50.0,77,30.29,10.0,SE,8.1,-,N/A,,Overcast,130,2013-04-18 14:54:00
11:22 AM,59.0,51.8,77,30.29,10.0,Variable,4.6,-,N/A,,Overcast,0,2013-04-18 15:22:00
11:54 AM,57.9,51.1,78,30.27,10.0,Variable,4.6,-,0.00,Rain,Light Rain,0,2013-04-18 15:54:00
12:38 PM,57.2,53.6,88,30.26,2.5,Variable,4.6,-,0.02,Rain,Light Rain,0,2013-04-18 16:38:00
12:47 PM,57.2,53.6,88,30.25,4.0,ESE,4.6,-,0.02,Rain,Light Rain,110,2013-04-18 16:47:00
12:54 PM,57.0,53.1,87,30.25,6.0,ESE,4.6,-,0.02,Rain,Light Rain,110,2013-04-18 16:54:00
1:15 PM,57.2,55.4,94,30.24,2.0,East,4.6,-,0.03,Rain,Rain,100,2013-04-18 17:15:00
1:26 PM,57.2,55.4,94,30.24,4.0,Variable,5.8,-,0.04,Rain,Light Rain,0,2013-04-18 17:26:00
1:45 PM,57.2,55.4,94,30.23,5.0,East,5.8,-,0.05,Rain,Light Rain,100,2013-04-18 17:45:00
1:49 PM,57.2,55.4,94,30.23,5.0,East,5.8,-,0.06,Rain,Light Rain,100,2013-04-18 17:49:00
2:50 PM,57.2,55.4,94,30.21,5.0,Variable,3.5,-,0.01,Rain,Light Rain,0,2013-04-18 18:50:00
2:54 PM,57.0,55.9,96,30.20,6.0,Variable,3.5,-,0.01,Rain,Light Rain,0,2013-04-18 18:54:00
3:08 PM,57.2,55.4,94,30.20,10.0,ESE,4.6,-,0.00,,Overcast,110,2013-04-18 19:08:00
3:54 PM,60.1,55.9,86,30.18,10.0,Calm,Calm,-,0.00,,Overcast,0,2013-04-18 19:54:00
4:54 PM,62.1,55.9,80,30.16,10.0,Variable,3.5,-,N/A,,Overcast,0,2013-04-18 20:54:00
5:54 PM,61.0,55.0,81,30.15,10.0,Variable,3.5,-,N/A,,Overcast,0,2013-04-18 21:54:00
6:54 PM,61.0,55.0,81,30.14,10.0,Variable,3.5,-,N/A,,Overcast,0,2013-04-18 22:54:00
7:54 PM,60.1,55.0,83,30.12,10.0,Calm,Calm,-,N/A,,Overcast,0,2013-04-18 23:54:00
8:54 PM,59.0,55.0,87,30.12,10.0,East,4.6,-,N/A,,Overcast,90,2013-04-19 00:54:00
9:22 PM,57.2,55.4,94,30.12,10.0,Variable,3.5,-,N/A,,Mostly Cloudy,0,2013-04-19 01:22:00
9:54 PM,57.0,54.0,89,30.11,10.0,Calm,Calm,-,N/A,,Clear,0,2013-04-19 01:54:00
10:54 PM,57.0,55.0,93,30.07,10.0,Variable,3.5,-,N/A,,Clear,0,2013-04-19 02:54:00
11:54 PM,57.9,55.9,93,30.06,10.0,Variable,3.5,-,N/A,,Clear,0,2013-04-19 03:54:00